Lamar, CO

1:30 AM MDT on September 20, 2019 (GMT -0600)
Lamar Municipal

Weather History for KLAA - August, 2019

Change the Weather History Date:

Saturday, August 24, 2019

  Actual Average Record
Temperature  
Mean Temperature 74 °F 74 °F  
Max Temperature 90 °F 89 °F 108 °F (1936)
Min Temperature 57 °F 59 °F 46 °F (1928)
Degree Days  
Heating Degree Days 0 0  
Month to date heating degree days 0 0  
Since 1 June heating degree days 16 22  
Since 1 July heating degree days 0 2  
Cooling Degree Days 9 9  
Month to date cooling degree days 353 267  
Year to date cooling degree days 1027 931  
Since 1 June cooling degree days 1005 871  
Growing Degree Days 24 (Base 50)    
Moisture  
Dew Point 60 °F    
Average Humidity 64    
Maximum Humidity 93    
Minimum Humidity 35    
Precipitation  
Precipitation T in 0.05 in 2.30 in (1972)
Month to date precipitation 0.73 1.91  
Year to date precipitation 7.23 12.00  
Sea Level Pressure  
Sea Level Pressure 29.82 in    
Wind  
Wind Speed 9 mph (ESE)    
Max Wind Speed 18 mph    
Max Gust Speed 28 mph    
Visibility 10 miles    
Events Rain    
T = Trace of Precipitation, MM = Missing Value Source: NWS Daily Summary

Daily Weather History Graph

Daily Weather History Graph

Search for Another Location

Airport or City:

Astronomy

Aug. 24, 2019 Rise Set
Actual Time 6:13 AM MDT 7:32 PM MDT
Civil Twilight 5:46 AM MDT 7:59 PM MDT
Nautical Twilight 5:13 AM MDT 8:32 PM MDT
Astronomical Twilight 4:38 AM MDT 9:06 PM MDT
Moon 12:09 AM MDT (8/24) 2:47 PM MDT (8/24)
Length of Visible Light 14h 13m
Length of Day
13h 18m
Last Quarter, 38% of the Moon is Illuminated
Aug 24
Last Quarter
Aug 30
New
Sep 5
First Quarter
Sep 13
Full
Sep 21
Last Quarter

Hourly Weather History & Observations

Time (MDT) Temp. Heat Index Dew Point Humidity Pressure Visibility Wind Dir Wind Speed Gust Speed Precip Events Conditions
12:53 AM 62.1 °F - 59.0 °F 90% 29.91 in 10.0 mi East 4.6 mph - N/A   Clear
1:53 AM 61.0 °F - 57.0 °F 87% 29.88 in 10.0 mi South 8.1 mph - N/A   Clear
2:53 AM 63.0 °F - 55.9 °F 78% 29.86 in 10.0 mi Variable 3.5 mph - 0.00 in Rain Light Rain
3:53 AM 62.1 °F - 55.9 °F 80% 29.86 in 10.0 mi East 4.6 mph - 0.00 in   Clear
4:53 AM 59.0 °F - 55.9 °F 90% 29.89 in 10.0 mi East 5.8 mph - N/A   Clear
5:53 AM 57.9 °F - 55.9 °F 93% 29.90 in 10.0 mi East 6.9 mph - N/A   Clear
6:53 AM 59.0 °F - 57.0 °F 93% 29.91 in 10.0 mi East 6.9 mph - N/A   Clear
7:53 AM 63.0 °F - 57.9 °F 84% 29.89 in 10.0 mi ESE 10.4 mph - N/A   Clear
8:53 AM 68.0 °F - 57.9 °F 70% 29.87 in 10.0 mi SE 12.7 mph - N/A   Clear
9:53 AM 77.0 °F - 59.0 °F 54% 29.83 in 10.0 mi SE 12.7 mph - N/A   Clear
10:53 AM 81.0 °F 80.7 °F 55.0 °F 41% 29.81 in 10.0 mi South 8.1 mph - N/A   Clear
11:53 AM 86.0 °F 84.7 °F 55.9 °F 36% 29.78 in 10.0 mi WSW 6.9 mph - N/A   Clear
1:53 PM 90.0 °F 89.7 °F 60.1 °F 37% 29.75 in 10.0 mi North 11.5 mph 18.4 mph N/A   Clear
2:53 PM 86.0 °F 85.4 °F 59.0 °F 40% 29.75 in 10.0 mi North 8.1 mph - N/A   Clear
3:53 PM 84.9 °F 84.2 °F 57.9 °F 40% 29.76 in 10.0 mi North 12.7 mph - N/A   Clear
4:53 PM 82.9 °F 84.0 °F 63.0 °F 51% 29.77 in 10.0 mi North 11.5 mph - N/A   Clear
5:53 PM 81.0 °F 82.5 °F 64.0 °F 56% 29.76 in 10.0 mi NNE 11.5 mph - N/A   Clear
6:53 PM 79.0 °F - 64.0 °F 60% 29.78 in 10.0 mi East 4.6 mph - N/A   Clear
7:53 PM 77.0 °F - 63.0 °F 62% 29.80 in 10.0 mi ESE 8.1 mph - N/A   Clear
8:53 PM 77.0 °F - 63.0 °F 62% 29.80 in 10.0 mi ESE 11.5 mph - N/A   Clear
9:53 PM 75.0 °F - 64.0 °F 69% 29.78 in 10.0 mi SE 13.8 mph - N/A   Clear
10:53 PM 73.0 °F - 64.0 °F 73% 29.77 in 10.0 mi SSE 16.1 mph 26.5 mph N/A   Clear
11:53 PM 72.0 °F - 64.9 °F 78% 29.77 in 10.0 mi South 13.8 mph - N/A   Clear